This demonstration page uses our WeatherBlox Daily Observations layout. Learn more.

Left ArrowRight Arrow

39.51506, -84.39828

Hourly Observations for May 27, 2022

Temp ( °F °C ) Dew Point ( °F °C ) Humidity (%) Winds ( mph kmh ) Pressure ( in mb ) Visibility ( mi km ) Precip ( " mm )
12:15 am 00:15 Cloudy 65 18.2 64 17.6 96 96 S 7 11 29.81 1009 10 16 0.00 0.00
12:35 am 00:35 Cloudy 65 18.1 64 17.6 97 97 SSE 7 11 29.81 1009 10 16 0.00 0.00
12:55 am 00:55 Cloudy 65 18.2 64 17.7 97 97 SSE 7 11 29.81 1009 10 16 0.00 0.00
1:15 am 01:15 Cloudy with Rain 65 18.1 64 17.8 98 98 S 13 20 29.81 1009 5 8 0.00 0.00
1:35 am 01:35 Cloudy 64 18 64 18 100 100 S 13 20 29.81 1009 10 16 0.01 0.25
1:55 am 01:55 Mostly Cloudy 64 17.6 63 17.3 98 98 SSW 10 17 29.80 1009 10 16 0.01 0.25
2:15 am 02:15 Partly Cloudy 63 17 63 17 100 100 S 9 15 29.81 1010 10 16 0.00 0.00
2:35 am 02:35 Partly Cloudy 63 17 63 17 100 100 SSW 7 11 29.80 1009 10 16 0.00 0.00
2:55 am 02:55 Partly Cloudy 61 16 N/A N/A SSW 7 11 29.80 1009 10 16 0.01 0.25
3:15 am 03:15 Partly Cloudy 61 16 N/A N/A SSW 5 7 29.79 1009 10 16 0.00 0.00
3:35 am 03:35 Mostly Cloudy 61 16 N/A N/A SSE 5 7 29.79 1009 10 16 0.00 0.00
3:55 am 03:55 Mostly Cloudy 61 16 N/A N/A Calm 29.79 1009 10 16 0.00 0.00
4:15 am 04:15 Partly Cloudy 59 15 N/A N/A SSW 3 6 29.80 1009 7 11 0.00 0.00
4:35 am 04:35 Mostly Cloudy with Mist and Fog 59 15 N/A N/A S 6 9 29.80 1009 2 3 0.00 0.00
4:55 am 04:55 Mostly Cloudy with Mist and Fog 59 15 N/A N/A Calm 29.79 1009 1 2 0.00 0.00
5:15 am 05:15 Mostly Cloudy with Mist and Fog 59 15 N/A N/A Calm 29.78 1008 1 1 0.00 0.00
5:35 am 05:35 Mostly Cloudy with Fog 57 14 N/A N/A SW 3 6 29.79 1009 1 1 0.00 0.00
5:55 am 05:55 Partly Cloudy with Mist and Fog 57 14 N/A N/A Calm 29.79 1009 2 2 0.00 0.00
6:15 am 06:15 Cloudy with Mist and Fog 57 14 N/A N/A Calm 29.79 1009 1 2 0.00 0.00
6:35 am 06:35 Partly Cloudy with Mist and Fog 57 14 N/A N/A Calm 29.80 1009 2 3 0.00 0.00
6:55 am 06:55 Sunny with Mist and Fog 57 14 N/A N/A Calm 29.80 1009 3 4 0.00 0.00
7:15 am 07:15 Partly Cloudy with Mist and Fog 57 14 N/A N/A Calm 29.81 1009 4 6 0.00 0.00
7:35 am 07:35 Hazy 59 15 N/A N/A WSW 3 6 29.81 1009 5 8 0.00 0.00
7:55 am 07:55 Mostly Cloudy 61 16 N/A N/A S 7 11 29.80 1009 10 16 0.00 0.00
8:15 am 08:15 Cloudy 63 17 N/A N/A S 3 6 29.79 1009 10 16 0.00 0.00
8:35 am 08:35 Cloudy 64 17.6 63 17 96 96 S 9 15 29.79 1009 10 16 0.00 0.00
8:55 am 08:55 Cloudy 64 17.9 62 16.5 92 92 S 12 19 29.79 1009 10 16 0.00 0.00
9:15 am 09:15 Cloudy 65 18.5 61 16.1 86 86 S 14 22 29.79 1009 10 16 0.00 0.00
9:35 am 09:35 Cloudy 65 18.2 60 15.4 84 84 S 16 26 29.79 1009 10 16 0.00 0.00
9:55 am 09:55 Cloudy 65 18.1 60 15.6 85 85 S 14 22 29.78 1008 10 16 0.00 0.00
10:15 am 10:15 Cloudy 64 18 60 15.3 84 84 SSW 13 20 29.78 1008 10 16 0.00 0.00
10:35 am 10:35 Cloudy 65 18.6 60 15.4 82 82 SW 16 26 29.78 1008 10 16 0.00 0.00
10:55 am 10:55 Cloudy 62 16.8 57 13.9 83 83 SW 14 22 29.78 1009 10 16 0.00 0.00
11:15 am 11:15 Cloudy 63 17.3 56 13.5 79 79 SW 15 24 29.78 1009 10 16 0.00 0.00
11:35 am 11:35 Cloudy 64 18 57 14.1 78 78 SW 14 22 29.78 1008 10 16 0.00 0.00
11:55 am 11:55 Cloudy 64 18 57 14 78 78 SW 12 19 29.78 1008 10 16 0.00 0.00
12:15 pm 12:15 Cloudy 64 18 56 13.3 74 74 SW 13 20 29.78 1008 10 16 0.00 0.00
12:35 pm 12:35 Cloudy 65 18.2 56 13.5 74 74 SSW 8 13 29.77 1008 10 16 0.00 0.00
12:55 pm 12:55 Cloudy 66 18.9 56 13.2 70 70 SSW 10 17 29.77 1008 10 16 0.00 0.00
1:15 pm 13:15 Cloudy 65 18.5 59 15.2 81 81 SW 9 15 29.77 1008 10 16 0.00 0.00
1:35 pm 13:35 Mostly Cloudy 67 19.7 56 13.3 67 67 SSW 10 17 29.77 1008 10 16 0.00 0.00
1:55 pm 13:55 Mostly Cloudy with Rain 61 16.2 59 14.8 91 91 SW 12 19 29.77 1008 7 11 0.00 0.00
2:15 pm 14:15 Cloudy 65 18.1 60 15.4 84 84 SW 7 11 29.76 1008 10 16 0.00 0.00
2:35 pm 14:35 Mostly Cloudy with Light Rain 63 17.2 58 14.4 84 84 WSW 10 17 29.76 1008 7 11 0.01 0.25
2:55 pm 14:55 Cloudy with Light Rain 62 16.4 60 15.4 94 94 WSW 7 11 29.77 1008 10 16 0.01 0.25
3:15 pm 15:15 Mostly Cloudy 64 17.6 60 15.6 88 88 WSW 5 7 29.76 1008 10 16 0.00 0.00
3:35 pm 15:35 Mostly Cloudy 65 18.3 57 13.9 76 76 SSW 7 11 29.75 1007 10 16 0.00 0.00
3:55 pm 15:55 Mostly Cloudy 64 17.8 58 14.2 80 80 SW 12 19 29.76 1008 10 16 0.00 0.00
4:15 pm 16:15 Cloudy 65 18.6 60 15.5 82 82 SW 9 15 29.76 1008 10 16 0.01 0.25
4:35 pm 16:35 Cloudy 65 18.6 56 13.5 72 72 SW 12 19 29.76 1008 10 16 0.01 0.25
4:55 pm 16:55 Cloudy with Nearby Thunderstorms 62 16.9 58 14.5 86 86 W 8 13 29.76 1008 5 8 0.02 0.51
5:15 pm 17:15 Cloudy with Rain 61 16.1 59 15.1 94 94 WSW 6 9 29.77 1008 7 11 0.00 0.00
5:35 pm 17:35 Cloudy with Light Rain 62 16.7 59 15.2 91 91 SW 6 9 29.77 1008 10 16 0.00 0.00
5:55 pm 17:55 Cloudy with Light Rain 63 17 61 15.9 93 93 WSW 6 9 29.77 1008 10 16 0.01 0.25
6:15 pm 18:15 Cloudy 63 17.1 61 15.9 93 93 SW 7 11 29.78 1009 10 16 0.00 0.00
6:35 pm 18:35 Cloudy with Light Rain 63 17 61 16.1 94 94 SW 3 6 29.78 1009 10 16 0.01 0.25
6:55 pm 18:55 Cloudy 62 16.9 60 15.8 93 93 SW 6 9 29.78 1009 10 16 0.01 0.25
7:15 pm 19:15 Cloudy with Heavy Rain 62 16.6 61 16 96 96 WSW 7 11 29.78 1009 7 11 0.01 0.25
7:35 pm 19:35 Cloudy with Light Rain 63 17 62 16.7 98 98 SW 5 7 29.78 1009 10 16 0.01 0.25
7:55 pm 19:55 Mostly Cloudy 63 17 62 16.8 99 99 SW 5 7 29.78 1009 10 16 0.02 0.51
8:15 pm 20:15 Mostly Cloudy 63 17.2 62 16.6 96 96 SW 6 9 29.79 1009 10 16 0.00 0.00
8:35 pm 20:35 Partly Cloudy 62 16.7 62 16.5 99 99 SSW 3 6 29.80 1009 10 16 0.00 0.00
8:55 pm 20:55 Mostly Cloudy 61 16 63 17 100 100 SW 9 15 29.80 1009 10 16 0.01 0.25
9:15 pm 21:15 Partly Cloudy 61 16 61 16 100 100 SW 7 11 29.80 1009 10 16 0.00 0.00
9:35 pm 21:35 Clear 61 16 N/A N/A SSW 3 6 29.81 1010 10 16 0.00 0.00
9:55 pm 21:55 Mostly Cloudy 59 15 N/A N/A SW 7 11 29.81 1009 10 16 0.01 0.25
10:15 pm 22:15 Mostly Cloudy 59 15 N/A N/A SW 3 6 29.82 1010 10 16 0.00 0.00
10:35 pm 22:35 Mostly Cloudy 59 15 N/A N/A SSW 6 9 29.83 1010 10 16 0.00 0.00
10:55 pm 22:55 Mostly Cloudy 59 15 N/A N/A SW 9 15 29.83 1010 10 16 0.01 0.25
11:15 pm 23:15 Mostly Cloudy 59 15 N/A N/A SSW 6 9 29.84 1010 10 16 0.00 0.00
11:35 pm 23:35 Mostly Cloudy 59 15 N/A N/A SW 5 7 29.84 1010 10 16 0.00 0.00
11:55 pm 23:55 Partly Cloudy 59 15 N/A N/A SW 5 7 29.85 1011 10 16 0.00 0.00

Powered by AerisWeather